{"data":{"norad_id":41469,"epoch":"2026-09-19T22:43:03.258336Z","epoch_age_seconds":62220,"freshness":"FRESH","line1":"1 41469U 16027A   26262.94656549 -.00000337  00000+0  00000+0 0  9998","line2":"2 41469   5.4253  95.2695 0002755  41.3419 332.4060  1.00278439 38139","mean_motion":1.00278439,"eccentricity":0.0002755,"inclination_deg":5.4253,"raan_deg":95.2695,"arg_perigee_deg":41.3419,"mean_anomaly_deg":332.406,"bstar":0,"rev_number":3813,"period_min":1436.001611473,"perigee_km":35773.113836813,"apogee_km":35796.345576369,"semimajor_km":42162.866706591,"source":"CELESTRAK","updated_at":"2026-09-20T09:00:45.779618Z"}}